User: anonymous   Login
Location: Caltech
(34.1382°N, 118.1253°W)
Time: 21:08:03
(UTC-08:00)
Language:

SL-16 R/B - Orbit

View from above orbital plane
View from above orbital plane
View from above satellite
View from above satellite

Ground track
Ground track

The orbit data is extracted from the following two-line orbital elements,

1 28353U 04021B   14352.98183275  .00000314  00000-0  18962-3 0  9083
2 28353 070.9993 189.3021 0003991 164.1462 347.5938 14.14102406543341
Epoch (UTC): 18 December 2014 23:33:50
Eccentricity: 0.0003991
inclination: 70.9993°
perigee height: 842 km
apogee height: 848 km
right ascension of ascending node: 189.3021°
argument of perigee: 164.1462°
revolutions per day: 14.14102406
mean anomaly at epoch: 347.5938°
orbit number at epoch: 54334

The dashed part of the orbit path shows where the satellite is in the earth's shadow,  

DLR